STARLINK-4103

operational
NORAD ID: 53141 Int'l Des: 2022-083 Owner: SPXS Country: US Constellation: starlink
LEOCIRCULAR

About STARLINK-4103

Description loading...

Live Position

Loading 3D Globe...

Upcoming Passes

Altitude History

Altitude vs Time

uPlot chart will show altitude changes over time

Two-Line Element Set

1 53141U 22083K 25251.48503119 -.00001376 00000-0 -68389-4 0 9992
2 53141 53.2178 272.0716 0001163 59.2268 300.8839 15.08831258173711
Epoch: Sep 8, 2025 • Age: 16 hours

Current Status

Altitude 558.9 km
Velocity 7.58 km/s
Sub-Earth Point -53.12°S, 151.03°E
Launch Date Jul 17, 2022
Age 3.1 years
Type internet

Technical Details

Classification Payload
Mass 297.00 kg
Dry Mass 275.00 kg
Total Mass 297.00 kg
Length 0.20 m
Diameter 2.80 m
Span 9.00 m
Shape Box + pan
Manufacturer SPXS
Bus Type Starlink
Phase Status In Orbit
Owner/State SPXS/US

Large Constellations

Loading constellations...